STARLINK-34994, 65924

Orbit data source: Space-Track

STARLINK-34994, 65924 is a payload satellite owned by SpaceX/Seattle (US) in LEO that was launched on Wed, 08 Oct 2025 UTC via an FALCON 9 launch vehicle from the Air Force Western Test Range (AFWTR). Payload-class satellites include a variety of spacecraft equipped with specific instruments for various scientific and technological missions. These include communications satellites like Starlink; space stations such as the ISS; scientific satellites like the Hubble; Earth observation satellites from companies like Planet Labs, Umbra, and HawkEye 360; GPS; miniature CubeSats for education and research; and military/defense satellites.

Loading next visibility...
Identifier
65924, 2025-225Q
Orbit
LEO
Country
Flag of USUS
Related business
Manufacturer
SpaceX/Seattle
Mission
Operational Commercial Communications
Bus & Motor
STARLINK V2MO, Unknown motor
Mass
575 kg wet, ~530 kg dry
Launch date (UTC)
2025-10-08 (8 months ago)
Launch vehicle
FALCON 9
Launch site
Air Force Western Test Range (AFWTR)
Object type
Payload
Rocket body
Debris
Shape & HBR
Box + 2 Pan, 17.7 m
Radar Cross Section
36.964 m², Large (>1 m²)

Expand to show TLE details & history
Last TLE update: 11 hours ago

TLE from 11 hours ago
0 STARLINK-34994
1 65924U 25225Q   26151.26304859  .00034004  00000-0  11545-2 0  9993
2 65924  53.1570 141.9065 0001218  77.9174 282.1963 15.30212556 37058
Epoch: 2026-05-31T06:18Z
TLE epoch observation values (Epoch: 2026-05-31T06:18:47.398Z)
Latitude
-0.00002°
Longitude
158.44176°
Altitude
475.901 km
Speed
7.629 km/s
True Right ascension
09h 27m 37s
True Declination
0° 00' 00"
Sunlit
Object was in daylight at epoch
Visualization orbit readout
Latitude
Unknown
Longitude
Unknown
Altitude
Unknown
Speed
Unknown
Apparent Right ascension
Unknown
Apparent Declination
Unknown
Sunlit
N/A
Visualization observer readout
Local Sidereal Time
03:18:00
Azimuth
Unknown
Elevation
Unknown
Doppler factor
Unknown
Orbital elements
Apogee altitude
476.269 km
Perigee altitude
474.6 km
Semi-major axis
6,853.571 km
Eccentricity
0.00012
Inclination
53.157°
RAAN
141.9065°
Arg. of periapsis
77.9174°
True anomaly
282.18266°
Mean anomaly
282.1963°
Eccentric anomaly
282.18948°
Mean motion
3.82532 °/min
Orbital period
94.11 mins
BSTAR
0.0011545
Loading maneuver chart data...
Computing Atmospheric mass density...
Loading historical data...
Loading historical data...
Loading historical data...
Loading historical data...
Loading historical data...
Loading historical data...
Loading historical data...

Documentation

Showing up to 5 results
|